Regional Weather Roundup
Issued by NWS Little Rock, AR

Home | Current Version | Previous Version | Text Only | Print | Product List | Glossary On
Versions: 1 2 3 4 5 6 7 8 9 10 11 12 13 14 15 16 17 18 19 20 21 22 23 24 25 26 27 28 29 30 31 32 33 34 35 36 37 38 39 40 41 42 43 44 45 46 47 48 49 50
000
ASUS44 KLZK 042005
RWRLZK

WEATHER ROUNDUP FOR ARKANSAS
NATIONAL WEATHER SERVICE LITTLE ROCK AR
200 PM CST WED MAR 04 2015

NOTE: "FAIR" INDICATES FEW OR NO CLOUDS BELOW 12,000 FEET WITH NO
SIGNIFICANT WEATHER AND/OR OBSTRUCTIONS TO VISIBILITY.

ARZ001-003-010-029-042100-
NORTHWEST ARKANSAS

CITY           SKY/WX    TMP DP  RH WIND       PRES   REMARKS
FAYETTEVILLE   SNOW      25  23  92 N14G21    30.12S VSB 1/2 WCI  13
FORT SMITH     LGT RAIN  35  31  85 N16       30.09R WCI  25
HARRISON       HVY SNOW  24  23  96 N8        30.14R VSB 1/4 WCI  15
BENTONVILLE    CLOUDY    25  18  74 NE18G28   30.17R WCI  11
ROGERS         LGT SNOW  22  19  89 N16       30.16S FOG     WCI   8
SILOAM SPGS    CLOUDY    25  16  68 NE18G25   30.17S WCI  11
HIGHFILL       LGT SNOW  24  20  84 N20G26    30.15S FOG     WCI  10
SPRINGDALE     LGT SNOW  25  21  86 NE12G23   30.15R VSB 1   WCI  14
$$

ARZ004-005-016-042100-
NORTH CENTRAL ARKANSAS

CITY           SKY/WX    TMP DP  RH WIND       PRES   REMARKS
BATESVILLE     CLOUDY    34  30  86 NW8G20    30.10R WCI  27
FLIPPIN        CLOUDY    27  19  74 CALM      30.16R
MTN HOME       SNOW      23  22  96 N8G20     30.15R VSB 1/4 WCI  14
$$

ARZ040-041-042100-
WEST CENTRAL ARKANSAS

CITY           SKY/WX    TMP DP  RH WIND       PRES   REMARKS
MENA           CLOUDY    41  39  93 N6        29.99R
MOUNT IDA      RAIN      41  39  93 VRB3      29.94F FOG
$$

ARZ009-017-025-026-028-042100-
NORTHEAST ARKANSAS

CITY           SKY/WX    TMP DP  RH WIND       PRES   REMARKS
CORNING        MOCLDY    28  25  86 N22G35    30.11F WCI  15
JONESBORO      MIX PCPN  32  30  92 N18G26    30.08R FOG     WCI  20
NEWPORT        LGT RAIN  34  31  89 N26       30.09R WCI  21
WALNUT RIDGE   CLOUDY    30  25  80 N21       30.13R WCI  17
BLYTHEVILLE    MIX PCPN  31  28  89 N36G43    30.05S WCI  15
$$

ARZ022-023-033-042-044-042100-
CENTRAL ARKANSAS

CITY           SKY/WX    TMP DP  RH WIND       PRES   REMARKS
LITTLE ROCK    HVY RAIN  40  37  89 N17G23    30.02S FOG
N LITTLE ROCK  CLOUDY    38  38 100 N16G24      N/A
JACKSONVILLE   RAIN      38  37  96 N9G20     30.03R FOG
SEARCY         LGT RAIN  38  36  92 N12       30.07R
HOT SPRINGS    LGT RAIN  41  38  89 VRB3      29.97F
RUSSELLVILLE   RAIN      37  34  89 N12       30.07R FOG
$$

ARZ036-042100-
EAST ARKANSAS

CITY           SKY/WX    TMP DP  RH WIND       PRES   REMARKS
WEST MEMPHIS   HVY RAIN  34  34 100 N23G33    30.00R FOG     WCI  22
$$

ARZ050-053-066-070-073-042100-
SOUTHWEST ARKANSAS

CITY           SKY/WX    TMP DP  RH WIND       PRES   REMARKS
TEXARKANA      RAIN      52  52 100 NE14      29.89F FOG
EL DORADO      LGT RAIN  51  49  92 N17G25    29.88R
DE QUEEN       HVY RAIN  45  43  93 N8        29.95R VSB 1
$$

ARZ056-057-069-042100-
SOUTHEAST ARKANSAS

CITY           SKY/WX    TMP DP  RH WIND       PRES   REMARKS
PINE BLUFF     LGT RAIN  39  36  89 N22G35    30.00R
STUTTGART      CLOUDY    37  34  87 N23       30.00S
MONTICELLO     LGT RAIN  43  40  89 NE10G20   29.92R

$$




USA.gov is the U.S. government's official web portal to all federal, state and local government web resources and services.